This demonstration page uses our WeatherBlox Daily Observations layout. Learn more.

Left ArrowRight Arrow

39.08367, -84.50855

Hourly Observations for October 15, 2015

Temp ( °F °C ) Dew Point ( °F °C ) Humidity (%) Winds ( mph kmh ) Pressure ( in mb ) Visibility ( mi km ) Precip ( " mm )
12:53 am 00:53 Clear 43 6.1 43 6.1 100 100 Calm 30.09 1019 10 16 0.00 0.00
1:18 am 01:18 Clear with Mist and Fog 43 6 43 6 100 100 Calm 30.09 1019 3 4 0.00 0.00
1:29 am 01:29 Clear with Mist and Fog 42 5.6 41 5 96 96 Calm 30.09 1019 5 8 0.00 0.00
1:53 am 01:53 Clear 42 5.6 41 5 96 96 Calm 30.09 1019 10 16 0.00 0.00
2:53 am 02:53 Clear 41 5 41 5 100 100 Calm 30.09 1019 8 13 0.00 0.00
3:41 am 03:41 Clear with Mist and Fog 39 3.9 38 3.3 96 96 Calm 30.09 1019 2 3 0.00 0.00
3:53 am 03:53 Clear with Mist and Fog 40 4.4 40 4.4 100 100 Calm 30.10 1019 1 2 0.00 0.00
3:59 am 03:59 Clear with Mist and Fog 39 3.9 39 3.9 100 100 Calm 30.12 1020 3 5 0.00 0.00
4:19 am 04:19 Clear with Mist and Fog 39 3.9 39 3.9 100 100 Calm 30.12 1020 2 3 0.00 0.00
4:28 am 04:28 Clear with Mist and Fog 39 3.9 39 3.9 100 100 Calm 30.12 1020 4 6 0.00 0.00
4:39 am 04:39 Partly Cloudy 40 4.4 39 3.9 97 97 Calm 30.12 1020 8 13 0.00 0.00
4:48 am 04:48 Mostly Cloudy 39 4 39 4 100 100 Calm 30.12 1020 8 13 0.00 0.00
4:53 am 04:53 Mostly Cloudy 39 3.9 39 3.9 100 100 Calm 30.11 1020 7 11 0.00 0.00
4:57 am 04:57 Cloudy with Mist and Fog 39 3.9 39 3.9 100 100 Calm 30.12 1020 2 3 0.00 0.00
5:04 am 05:04 Mostly Cloudy with Fog 39 4 39 4 100 100 Calm 30.12 1020 0 0 0.00 0.00
5:32 am 05:32 Mostly Cloudy with Mist and Fog 39 4 39 4 100 100 Calm 30.12 1020 1 2 0.00 0.00
5:35 am 05:35 Cloudy with Mist and Fog 40 4.4 40 4.4 100 100 Calm 30.12 1020 3 5 0.00 0.00
5:50 am 05:50 Cloudy with Mist and Fog 39 4 39 4 100 100 Calm 30.12 1020 1 2 0.00 0.00
5:53 am 05:53 Mostly Cloudy with Fog 40 4.4 40 4.4 100 100 Calm 30.11 1020 1 1 0.00 0.00
6:01 am 06:01 Mostly Cloudy with Fog 40 4.4 40 4.4 100 100 Calm 30.12 1020 0 0 0.00 0.00
6:46 am 06:46 Mostly Cloudy with Fog 39 4 39 4 100 100 Calm 30.12 1020 1 1 0.00 0.00
6:53 am 06:53 Mostly Cloudy with Fog 39 3.9 39 3.9 100 100 Calm 30.13 1020 1 1 0.00 0.00
7:20 am 07:20 Mostly Cloudy with Fog 39 4 39 4 100 100 Calm 30.12 1020 0 0 0.00 0.00
7:53 am 07:53 Mostly Cloudy with Fog 39 3.9 39 3.9 100 100 Calm 30.14 1021 5 8 0.00 0.00
8:13 am 08:13 Mostly Cloudy with Mist and Fog 39 3.9 39 3.9 100 100 Calm 30.15 1021 2 3 0.00 0.00
8:28 am 08:28 Partly Cloudy with Patchy Fog 39 4 39 4 100 100 Calm 30.15 1021 5 8 0.00 0.00
8:53 am 08:53 Mostly Sunny 42 5.6 42 5.6 100 100 Calm 30.16 1021 10 16 0.00 0.00
9:53 am 09:53 Sunny 49 9.4 45 7.2 86 86 Calm 30.16 1022 10 16 0.00 0.00
10:53 am 10:53 Sunny 56 13.3 46 7.8 70 70 S 3 6 30.16 1021 10 16 0.00 0.00
11:53 am 11:53 Sunny 63 17.2 43 6.1 48 48 SSW 10 17 30.14 1021 10 16 0.00 0.00
12:53 pm 12:53 Sunny 65 18.3 38 3.3 37 37 SW 9 15 30.13 1020 10 16 0.00 0.00
1:53 pm 13:53 Sunny 67 19.4 39 3.9 36 36 SSW 8 13 30.09 1019 10 16 0.00 0.00
2:53 pm 14:53 Sunny 68 20 41 5 38 38 SSW 10 17 30.05 1018 10 16 0.00 0.00
3:53 pm 15:53 Sunny 69 20.6 38 3.3 32 32 S 10 17 30.02 1017 10 16 0.00 0.00
4:53 pm 16:53 Sunny 69 20.6 40 4.4 35 35 SW 12 19 30.00 1016 10 16 0.00 0.00
5:53 pm 17:53 Partly Cloudy 68 20 40 4.4 36 36 SSW 14 22 29.99 1016 10 16 0.00 0.00
6:53 pm 18:53 Partly Cloudy 63 17.2 43 6.1 48 48 WSW 7 11 30.01 1016 10 16 0.00 0.00
7:53 pm 19:53 Clear 60 15.6 47 8.3 62 62 SW 6 9 30.01 1016 10 16 0.00 0.00
8:53 pm 20:53 Clear 58 14.4 48 8.9 70 70 Calm 30.01 1016 10 16 0.00 0.00
9:53 pm 21:53 Clear 55 12.8 49 9.4 80 80 SSW 5 7 30.00 1016 10 16 0.00 0.00
10:53 pm 22:53 Clear 63 17.2 44 6.7 50 50 W 12 19 30.02 1017 10 16 0.00 0.00
11:53 pm 23:53 Clear 64 17.8 39 3.9 40 40 NW 8 13 30.05 1018 10 16 0.00 0.00

Powered by AerisWeather